• In United Kingdom
  • List of Countries
  • For 7 days
  • Water Temperature
  • Satellite Maps
  • Weather Map
  • Weather Widgets
  • user-avatar
    Login

    Hourly Weather Goiania

    Today, 24 September, Monday

    Time Temperature Precipitation Wind Pressure Humidity
    00:00 +29°C° 0 mm 1 mps 698 mmHg 39%
    01:00 +29°C° 0 mm 1 mps 698 mmHg 40%
    02:00 +28°C° 0 mm 1 mps 698 mmHg 42%
    03:00 +27°C° 0 mm 2 mps 698 mmHg 46%
    04:00 +26°C° 0 mm 2 mps 698 mmHg 48%
    05:00 +26°C° 0 mm 2 mps 698 mmHg 51%
    06:00 +26°C° 0 mm 2 mps 698 mmHg 54%
    07:00 +28°C° 0 mm 3 mps 699 mmHg 49%
    08:00 +30°C° 0 mm 4 mps 699 mmHg 44%
    09:00 +34°C° 0 mm 4 mps 700 mmHg 39%
    10:00 +35°C° 0 mm 4 mps 700 mmHg 34%
    11:00 +36°C° 0 mm 3 mps 700 mmHg 28%
    12:00 +38°C° 0 mm 3 mps 700 mmHg 23%
    13:00 +38°C° 0 mm 2 mps 699 mmHg 24%
    14:00 +36°C° 0 mm 1 mps 699 mmHg 25%
    15:00 +36°C° 0 mm 1 mps 698 mmHg 25%
    16:00 +35°C° 0 mm 1 mps 698 mmHg 27%
    17:00 +34°C° 0 mm 1 mps 698 mmHg 29%
    18:00 +33°C° 0 mm 1 mps 698 mmHg 31%
    19:00 +32°C° 0 mm 1 mps 698 mmHg 32%
    20:00 +29°C° 0 mm 0 mps 698 mmHg 33%
    21:00 +29°C° 0 mm 0 mps 699 mmHg 34%
    22:00 +30°C° 0 mm 1 mps 699 mmHg 35%
    23:00 +30°C° 0 mm 1 mps 699 mmHg 37%

    Tomorrow, 25 September, Tuesday

    Time Temperature Precipitation Wind Pressure Humidity
    00:00 +29°C° 0 mm 1 mps 699 mmHg 38%
    01:00 +29°C° 0 mm 1 mps 698 mmHg 39%
    02:00 +28°C° 0 mm 1 mps 698 mmHg 40%
    03:00 +28°C° 0 mm 1 mps 697 mmHg 41%
    04:00 +27°C° 0 mm 2 mps 697 mmHg 43%
    05:00 +27°C° 0 mm 2 mps 697 mmHg 44%
    06:00 +26°C° 0 mm 2 mps 698 mmHg 46%
    07:00 +28°C° 0 mm 3 mps 698 mmHg 41%
    08:00 +32°C° 0 mm 4 mps 699 mmHg 35%
    09:00 +34°C° 0 mm 5 mps 700 mmHg 30%
    10:00 +35°C° 0 mm 4 mps 700 mmHg 27%
    11:00 +37°C° 0 mm 4 mps 700 mmHg 24%
    12:00 +38°C° 0 mm 3 mps 699 mmHg 21%
    13:00 +38°C° 0 mm 3 mps 699 mmHg 20%
    14:00 +39°C° 0 mm 2 mps 698 mmHg 19%
    15:00 +39°C° 0 mm 2 mps 697 mmHg 18%
    16:00 +37°C° 0 mm 2 mps 697 mmHg 20%
    17:00 +35°C° 0 mm 1 mps 697 mmHg 22%
    18:00 +33°C° 0 mm 1 mps 696 mmHg 24%
    19:00 +33°C° 0 mm 1 mps 697 mmHg 25%
    20:00 +32°C° 0 mm 1 mps 697 mmHg 26%
    21:00 +31°C° 0 mm 1 mps 698 mmHg 27%
    22:00 +31°C° 0 mm 2 mps 698 mmHg 29%
    23:00 +30°C° 0 mm 2 mps 698 mmHg 30%

    Day after tomorrow, 26 September, Wednesday

    Time Temperature Precipitation Wind Pressure Humidity
    00:00 +30°C° 0 mm 2 mps 698 mmHg 32%
    01:00 +29°C° 0 mm 2 mps 697 mmHg 33%
    02:00 +28°C° 0 mm 2 mps 697 mmHg 35%
    03:00 +28°C° 0 mm 2 mps 696 mmHg 37%
    04:00 +27°C° 0 mm 2 mps 696 mmHg 38%
    05:00 +27°C° 0 mm 2 mps 697 mmHg 39%
    06:00 +27°C° 0 mm 2 mps 697 mmHg 40%
    07:00 +29°C° 0 mm 3 mps 698 mmHg 36%
    08:00 +32°C° 0 mm 4 mps 698 mmHg 32%
    09:00 +34°C° 0 mm 5 mps 699 mmHg 28%
    10:00 +35°C° 0 mm 4 mps 699 mmHg 26%
    11:00 +37°C° 0 mm 4 mps 699 mmHg 23%
    12:00 +38°C° 0 mm 3 mps 699 mmHg 21%
    13:00 +38°C° 0 mm 2 mps 698 mmHg 22%
    14:00 +38°C° 0 mm 2 mps 697 mmHg 22%
    15:00 +36°C° 0 mm 1 mps 696 mmHg 22%
    16:00 +35°C° 0 mm 1 mps 696 mmHg 25%
    17:00 +34°C° 0 mm 1 mps 696 mmHg 27%
    18:00 +33°C° 0 mm 1 mps 696 mmHg 29%
    19:00 +32°C° 0 mm 1 mps 697 mmHg 30%
    20:00 +31°C° 0 mm 1 mps 697 mmHg 32%
    21:00 +30°C° 0 mm 1 mps 697 mmHg 33%
    22:00 +30°C° 0 mm 1 mps 697 mmHg 34%
    23:00 +29°C° 0 mm 1 mps 697 mmHg 35%

    27 September, Thursday

    Time Temperature Precipitation Wind Pressure Humidity
    00:00 +29°C° 0 mm 1 mps 697 mmHg 36%
    01:00 +28°C° 0 mm 1 mps 697 mmHg 36%
    02:00 +28°C° 0 mm 1 mps 696 mmHg 36%
    03:00 +28°C° 0 mm 1 mps 696 mmHg 36%
    04:00 +28°C° 0 mm 2 mps 696 mmHg 36%
    05:00 +27°C° 0 mm 2 mps 696 mmHg 36%
    06:00 +27°C° 0 mm 2 mps 697 mmHg 36%
    07:00 +29°C° 0 mm 2 mps 697 mmHg 33%
    08:00 +31°C° 0 mm 3 mps 698 mmHg 30%
    09:00 +34°C° 0 mm 4 mps 699 mmHg 26%
    10:00 +36°C° 0 mm 3 mps 699 mmHg 24%
    11:00 +37°C° 0 mm 3 mps 699 mmHg 22%
    12:00 +39°C° 0 mm 3 mps 699 mmHg 19%
    13:00 +39°C° 0 mm 2 mps 698 mmHg 19%
    14:00 +38°C° 0 mm 2 mps 697 mmHg 20%
    15:00 +38°C° 0 mm 2 mps 696 mmHg 20%
    16:00 +36°C° 0 mm 1 mps 696 mmHg 22%
    17:00 +35°C° 0 mm 1 mps 696 mmHg 24%
    18:00 +33°C° 0 mm 1 mps 696 mmHg 27%
    19:00 +33°C° 0 mm 1 mps 697 mmHg 28%
    20:00 +32°C° 0 mm 1 mps 697 mmHg 29%
    21:00 +31°C° 0 mm 1 mps 698 mmHg 31%
    22:00 +31°C° 0 mm 1 mps 698 mmHg 31%
    23:00 +31°C° 0 mm 1 mps 697 mmHg 32%

    28 September, Friday

    Time Temperature Precipitation Wind Pressure Humidity
    00:00 +30°C° 0 mm 1 mps 697 mmHg 32%
    01:00 +30°C° 0 mm 1 mps 697 mmHg 33%
    02:00 +30°C° 0 mm 1 mps 697 mmHg 34%
    03:00 +29°C° 0 mm 1 mps 697 mmHg 34%
    04:00 +29°C° 0 mm 1 mps 697 mmHg 36%
    05:00 +28°C° 0 mm 1 mps 697 mmHg 37%
    06:00 +28°C° 0 mm 1 mps 697 mmHg 39%
    07:00 +30°C° 0 mm 1 mps 698 mmHg 37%
    08:00 +31°C° 0 mm 2 mps 699 mmHg 34%
    09:00 +32°C° 0 mm 2 mps 700 mmHg 32%
    10:00 +36°C° 0 mm 2 mps 699 mmHg 28%
    11:00 +38°C° 0 mm 2 mps 699 mmHg 24%
    12:00 +40°C° 0 mm 2 mps 699 mmHg 20%
    13:00 +39°C° 0 mm 2 mps 699 mmHg 22%
    14:00 +37°C° 0 mm 1 mps 698 mmHg 23%
    15:00 +36°C° 0 mm 1 mps 697 mmHg 25%
    16:00 +35°C° 0 mm 1 mps 697 mmHg 26%
    17:00 +34°C° 0 mm 1 mps 697 mmHg 28%
    18:00 +33°C° 0 mm 1 mps 697 mmHg 30%
    19:00 +32°C° 0 mm 1 mps 697 mmHg 32%
    20:00 +31°C° 0 mm 1 mps 697 mmHg 34%
    21:00 +30°C° 0 mm 1 mps 697 mmHg 36%
    22:00 +29°C° 0 mm 1 mps 697 mmHg 38%
    23:00 +29°C° 0 mm 1 mps 697 mmHg 39%

    29 September, Saturday

    Time Temperature Precipitation Wind Pressure Humidity
    00:00 +29°C° 0 mm 1 mps 697 mmHg 41%
    01:00 +28°C° 0 mm 1 mps 697 mmHg 43%
    02:00 +28°C° 0 mm 1 mps 697 mmHg 45%
    03:00 +27°C° 0 mm 2 mps 696 mmHg 48%
    04:00 +27°C° 0 mm 2 mps 696 mmHg 52%
    05:00 +26°C° 0 mm 1 mps 697 mmHg 57%
    06:00 +26°C° 0 mm 1 mps 697 mmHg 61%
    07:00 +27°C° 0 mm 1 mps 698 mmHg 57%
    08:00 +29°C° 0 mm 2 mps 698 mmHg 54%
    09:00 +30°C° 0 mm 2 mps 699 mmHg 50%
    10:00 +34°C° 0 mm 2 mps 699 mmHg 43%
    11:00 +35°C° 0 mm 1 mps 699 mmHg 36%
    12:00 +35°C° 0 mm 0 mps 699 mmHg 30%
    13:00 +36°C° 0 mm 1 mps 698 mmHg 30%
    14:00 +36°C° 0 mm 1 mps 697 mmHg 30%
    15:00 +36°C° 0 mm 2 mps 697 mmHg 31%
    16:00 +35°C° 0.1 mm 2 mps 697 mmHg 34%
    17:00 +32°C° 0.1 mm 2 mps 697 mmHg 37%
    18:00 +31°C° 0.1 mm 2 mps 697 mmHg 40%
    19:00 +30°C° 0.4 mm 2 mps 697 mmHg 44%
    20:00 +29°C° 0.4 mm 1 mps 697 mmHg 48%
    21:00 +28°C° 0.4 mm 1 mps 697 mmHg 52%
    22:00 +27°C° 0.8 mm 2 mps 697 mmHg 59%
    23:00 +26°C° 0.8 mm 2 mps 697 mmHg 66%
    Show more